TGL971C LFMN-LFPO

Flight info

Callsign TGL971C
Flight time N/A
Altitude 34000
Route BADOD DCT NEDRU DCT LTP DCT BULOL DCT IDAVO DCT ARDOL
Aircraft A320/M-SDE3FGHIRWY/LB1

Departure

Time 2026-05-01 15:17
Airport Nice-Côte d'Azur Airport (LFMN)

Arrival

Time N/A
Airport Paris-Orly Airport (LFPO)
Time Latitude Longitude Altitude Speed Heading
2026-05-01 14:45 43.66536 7.21575 25 ft 0 kts 313°
2026-05-01 15:01 43.66535 7.21575 22 ft 0 kts 313°
2026-05-01 15:03 43.66535 7.21576 22 ft 2 kts 313°
2026-05-01 15:03 43.66519 7.21599 26 ft 3 kts 314°
2026-05-01 15:03 43.66504 7.21623 22 ft 3 kts 294°
2026-05-01 15:04 43.66500 7.21652 23 ft 3 kts 245°
2026-05-01 15:04 43.66507 7.21667 26 ft 0 kts 225°
2026-05-01 15:06 43.66504 7.21662 26 ft 2 kts 225°
2026-05-01 15:06 43.66487 7.21640 23 ft 5 kts 223°
2026-05-01 15:06 43.66457 7.21598 22 ft 8 kts 225°
2026-05-01 15:07 43.66416 7.21541 22 ft 8 kts 222°
2026-05-01 15:07 43.66369 7.21544 24 ft 7 kts 142°
2026-05-01 15:07 43.66337 7.21587 22 ft 7 kts 135°
2026-05-01 15:07 43.66292 7.21606 22 ft 8 kts 200°
2026-05-01 15:08 43.66249 7.21553 22 ft 9 kts 224°
2026-05-01 15:08 43.66201 7.21488 22 ft 10 kts 225°
2026-05-01 15:08 43.66147 7.21413 22 ft 12 kts 225°
2026-05-01 15:08 43.66087 7.21330 22 ft 13 kts 225°
2026-05-01 15:09 43.66021 7.21239 22 ft 14 kts 225°
2026-05-01 15:09 43.65952 7.21145 22 ft 14 kts 225°
2026-05-01 15:09 43.65883 7.21050 22 ft 14 kts 224°
2026-05-01 15:09 43.65813 7.20953 22 ft 14 kts 225°
2026-05-01 15:10 43.65741 7.20854 22 ft 15 kts 225°
2026-05-01 15:10 43.65602 7.20682 23 ft 10 kts 193°
2026-05-01 15:10 43.65551 7.20689 22 ft 6 kts 172°
2026-05-01 15:11 43.65510 7.20699 22 ft 6 kts 170°
2026-05-01 15:11 43.65347 7.20736 22 ft 15 kts 172°
2026-05-01 15:11 43.65245 7.20707 24 ft 15 kts 217°
2026-05-01 15:12 43.65169 7.20606 22 ft 16 kts 225°
2026-05-01 15:12 43.65060 7.20453 22 ft 8 kts 225°
2026-05-01 15:12 43.65023 7.20402 22 ft 7 kts 225°
2026-05-01 15:13 43.64940 7.20291 22 ft 7 kts 224°
2026-05-01 15:14 43.64853 7.20172 22 ft 9 kts 225°
2026-05-01 15:14 43.64806 7.20134 22 ft 7 kts 188°
2026-05-01 15:14 43.64741 7.20184 22 ft 4 kts 135°
2026-05-01 15:15 43.64706 7.20235 22 ft 4 kts 130°
2026-05-01 15:15 43.64708 7.20298 24 ft 6 kts 45°
2026-05-01 15:16 43.65218 7.20997 23 ft 116 kts 45°
2026-05-01 15:16 43.66696 7.23153 581 ft 170 kts 62°
2026-05-01 15:17 43.66084 7.25965 2040 ft 164 kts 139°
2026-05-01 15:18 43.63549 7.29230 3731 ft 187 kts 134°
2026-05-01 15:18 43.62555 7.30547 4002 ft 210 kts 134°
2026-05-01 15:19 43.58307 7.30537 6037 ft 241 kts 210°
2026-05-01 15:19 43.55582 7.27784 7538 ft 247 kts 236°
2026-05-01 15:19 43.54966 7.25590 8289 ft 248 kts 266°
2026-05-01 15:20 43.56122 7.21305 9802 ft 246 kts 311°
2026-05-01 15:20 43.57190 7.19439 10551 ft 249 kts 311°
2026-05-01 15:20 43.58273 7.17554 11267 ft 252 kts 311°
2026-05-01 15:21 43.59365 7.15647 11985 ft 255 kts 310°
2026-05-01 15:21 43.60469 7.13711 12716 ft 258 kts 310°
2026-05-01 15:21 43.61732 7.11908 13183 ft 270 kts 322°
2026-05-01 15:21 43.63250 7.10186 13420 ft 294 kts 323°
2026-05-01 15:22 43.66675 7.06325 13847 ft 340 kts 322°
2026-05-01 15:22 43.68531 7.04216 14362 ft 349 kts 322°
2026-05-01 15:22 43.70418 7.02062 14980 ft 354 kts 322°
2026-05-01 15:23 43.72323 6.99880 15631 ft 358 kts 322°
2026-05-01 15:23 43.74250 6.97666 16283 ft 362 kts 322°
2026-05-01 15:23 43.76197 6.95428 16914 ft 366 kts 322°
2026-05-01 15:23 43.78170 6.93164 17542 ft 370 kts 321°
2026-05-01 15:24 43.80162 6.90876 18155 ft 375 kts 322°
2026-05-01 15:24 43.82155 6.88589 18726 ft 379 kts 321°
2026-05-01 15:24 43.84191 6.86251 19265 ft 382 kts 322°
2026-05-01 15:24 43.86242 6.83889 19819 ft 384 kts 321°
2026-05-01 15:25 43.88306 6.81506 20314 ft 389 kts 321°
2026-05-01 15:25 43.90398 6.79091 20834 ft 392 kts 321°
2026-05-01 15:25 43.92497 6.76661 21380 ft 394 kts 321°
2026-05-01 15:25 43.94683 6.74353 21918 ft 396 kts 329°
2026-05-01 15:26 43.97067 6.72422 22424 ft 398 kts 331°
2026-05-01 15:26 43.99481 6.70500 22942 ft 401 kts 331°
2026-05-01 15:26 44.01904 6.68564 23469 ft 403 kts 331°
2026-05-01 15:26 44.04345 6.66608 23951 ft 406 kts 330°
2026-05-01 15:27 44.06792 6.64640 24359 ft 408 kts 330°
2026-05-01 15:27 44.09249 6.62662 24808 ft 409 kts 330°
2026-05-01 15:27 44.11716 6.60677 25251 ft 410 kts 330°
2026-05-01 15:28 44.16657 6.56689 26158 ft 411 kts 330°
2026-05-01 15:28 44.19132 6.54685 26543 ft 413 kts 330°
2026-05-01 15:28 44.21620 6.52671 26938 ft 414 kts 330°
2026-05-01 15:29 44.26638 6.48614 27677 ft 420 kts 330°
2026-05-01 15:29 44.29169 6.46564 28052 ft 422 kts 329°
2026-05-01 15:29 44.34274 6.42428 28816 ft 426 kts 329°
2026-05-01 15:30 44.39420 6.38242 29536 ft 430 kts 329°
2026-05-01 15:31 44.49835 6.29728 30802 ft 437 kts 329°
2026-05-01 15:31 44.55112 6.25407 31348 ft 441 kts 329°
2026-05-01 15:32 44.60409 6.21053 32003 ft 440 kts 329°
2026-05-01 15:32 44.65674 6.16731 32815 ft 437 kts 328°
2026-05-01 15:33 44.73481 6.10298 34040 ft 431 kts 328°
2026-05-01 15:34 44.81131 6.03956 34282 ft 419 kts 328°